FW3222 Weather Reports


time (UTC)temp
C
wind
direction
speed
KPH
gust
KPH
rain 1hr
cm
rain 24hr
cm
rain mn
cm
humidity
%
barometer
mb
20260504220830 23 191 3.2 22.5 0.00 0.00 0.00 24 1008.9
20260504220047 23 277 6.4 22.5 0.00 0.00 0.00 24 1008.9
20260504215744 24 226 8.0 22.5 0.00 0.00 0.00 24 1008.9
20260504215448 24 186 6.4 22.5 0.00 0.00 0.00 25 1008.8
20260504215148 24 209 6.4 20.9 0.00 0.00 0.00 25 1008.9
20260504214847 24 188 4.8 16.1 0.00 0.00 0.00 25 1008.8
20260504214548 24 192 4.8 16.1 0.00 0.00 0.00 24 1008.8
20260504214243 24 203 4.8 16.1 0.00 0.00 0.00 24 1008.8
20260504213110 24 236 6.4 22.5 0.00 0.00 0.00 26 1008.6
20260504212804 24 211 6.4 22.5 0.00 0.00 0.00 25 1008.7
20260504212457 24 221 6.4 22.5 0.00 0.00 0.00 24 1008.8
20260504212155 24 219 6.4 22.5 0.00 0.00 0.00 25 1008.9
20260504211847 24 157 4.8 22.5 0.00 0.00 0.00 22 1008.8
20260504211537 24 210 4.8 22.5 0.00 0.00 0.00 23 1008.6
20260504211224 24 223 4.8 22.5 0.00 0.00 0.00 23 1008.8
20260504210920 24 178 4.8 16.1 0.00 0.00 0.00 23 1008.7
20260504210609 24 229 6.4 16.1 0.00 0.00 0.00 23 1008.8
20260504210306 24 219 6.4 14.5 0.00 0.00 0.00 21 1008.7
20260504210004 24 192 6.4 14.5 0.00 0.00 0.00 23 1008.8
20260504205702 25 178 6.4 17.7 0.00 0.00 0.00 23 1008.8
20260504205348 25 171 4.8 17.7 0.00 0.00 0.00 23 1008.8
20260504205049 25 233 4.8 17.7 0.00 0.00 0.00 24 1008.9
20260504204739 25 225 6.4 17.7 0.00 0.00 0.00 22 1008.9
20260504204433 25 296 4.8 17.7 0.00 0.00 0.00 23 1008.8
20260504204125 24 127 6.4 17.7 0.00 0.00 0.00 22 1008.8
20260504203827 24 153 4.8 20.9 0.00 0.00 0.00 23 1008.8
20260504203513 24 233 6.4 20.9 0.00 0.00 0.00 21 1008.8
20260504203209 24 224 4.8 20.9 0.00 0.00 0.00 23 1008.9
20260504202905 24 197 4.8 20.9 0.00 0.00 0.00 21 1009.0
20260504202604 24 243 4.8 20.9 0.00 0.00 0.00 21 1009.0
20260504202257 24 264 4.8 20.9 0.00 0.00 0.00 22 1009.0
20260504202000 24 320 4.8 20.9 0.00 0.00 0.00 22 1009.1
20260504201648 24 181 4.8 20.9 0.00 0.00 0.00 23 1009.1
20260504201338 24 180 6.4 20.9 0.00 0.00 0.00 23 1009.1
20260504201026 24 179 6.4 20.9 0.00 0.00 0.00 21 1009.2
20260504200716 24 171 6.4 27.4 0.00 0.00 0.00 21 1009.3
20260504200418 24 173 6.4 27.4 0.00 0.00 0.00 22 1009.3
20260504200110 24 197 6.4 27.4 0.00 0.00 0.00 22 1009.4
20260504195805 24 237 6.4 27.4 0.00 0.00 0.00 21 1009.4
20260504195055 24 199 6.4 27.4 0.00 0.00 0.00 22 1009.5
20260504194752 24 259 4.8 24.1 0.00 0.00 0.00 22 1009.5
20260504194021 24 185 6.4 24.1 0.00 0.00 0.00 22 1009.6
20260504193258 24 195 6.4 20.9 0.00 0.00 0.00 23 1009.8
20260504193002 24 220 6.4 20.9 0.00 0.00 0.00 24 1009.9
20260504192657 24 281 6.4 20.9 0.00 0.00 0.00 23 1009.9
20260504191940 24 185 6.4 22.5 0.00 0.00 0.00 24 1010.0
20260504191219 23 147 8.0 24.1 0.00 0.00 0.00 25 1010.2
20260504190906 24 267 8.0 24.1 0.00 0.00 0.00 23 1010.2
20260504190601 24 179 9.7 24.1 0.00 0.00 0.00 24 1010.2
20260504185842 24 286 6.4 24.1 0.00 0.00 0.00 24 1010.4
20260504184707 24 249 4.8 20.9 0.00 0.00 0.00 24 1010.6
20260504184401 24 9 4.8 20.9 0.00 0.00 0.00 27 1010.6
20260504183640 23 195 6.4 22.5 0.00 0.00 0.00 24 1010.8
20260504183329 23 178 6.4 22.5 0.00 0.00 0.00 28 1010.9
20260504183017 23 282 6.4 22.5 0.00 0.00 0.00 24 1010.8
20260504182716 23 233 8.0 22.5 0.00 0.00 0.00 25 1010.9
20260504182405 23 283 8.0 22.5 0.00 0.00 0.00 25 1010.9
20260504182109 23 225 8.0 22.5 0.00 0.00 0.00 23 1011.2
20260504181754 23 218 6.4 22.5 0.00 0.00 0.00 26 1011.2
20260504180607 23 234 8.0 20.9 0.00 0.00 0.00 24 1011.4
20260504174959 23 294 6.4 24.1 0.00 0.00 0.00 25 1011.6
20260504174652 23 170 6.4 24.1 0.00 0.00 0.00 27 1011.5
20260504174341 23 271 6.4 24.1 0.00 0.00 0.00 25 1011.6
20260504174030 23 265 6.4 24.1 0.00 0.00 0.00 25 1011.7
20260504173725 22 229 6.4 19.3 0.00 0.00 0.00 26 1011.7
20260504173003 22 279 4.8 19.3 0.00 0.00 0.00 25 1011.7
20260504172702 22 190 4.8 19.3 0.00 0.00 0.00 26 1011.7
20260504172355 22 178 3.2 17.7 0.00 0.00 0.00 27 1011.8
20260504171635 22 244 4.8 17.7 0.00 0.00 0.00 26 1011.9
20260504170908 22 274 6.4 17.7 0.00 0.00 0.00 27 1012.0
20260504160407 21 261 8.0 22.5 0.00 0.00 0.00 27 1013.0
20260504151146 18 336 6.4 17.7 0.00 0.00 0.00 30 1013.9
20260504150844 18 277 4.8 19.3 0.00 0.00 0.00 30 1014.0
20260504141125 15 97 1.6 4.8 0.00 0.00 0.00 38 1014.0
20260504140818 14 276 0.0 4.8 0.00 0.00 0.00 36 1014.2
20260504140511 14 190 0.0 4.8 0.00 0.00 0.00 36 1014.2
20260504140210 14 203 0.0 4.8 0.00 0.00 0.00 37 1014.3
20260504130646 12 333 1.6 9.7 0.00 0.00 0.00 39 1014.7
20260504130347 12 278 1.6 9.7 0.00 0.00 0.00 41 1014.9
20260504120251 8 248 0.0 0.0 0.00 0.00 0.00 50 1015.2
20260504110510 3 268 0.0 0.0 0.00 0.00 0.00 65 1015.0
20260504110211 3 268 0.0 0.0 0.00 0.00 0.00 65 1015.0
20260504100551 2 268 0.0 0.0 0.00 0.00 0.00 65 1015.2
20260504100248 2 268 0.0 0.0 0.00 0.00 0.00 65 1015.3
20260504081911 3 251 0.0 1.6 0.00 0.00 0.00 62 1015.5
20260504081604 3 251 0.0 1.6 0.00 0.00 0.00 62 1015.7
20260504081258 3 248 0.0 0.0 0.00 0.00 0.00 62 1015.6
20260504080948 3 248 0.0 0.0 0.00 0.00 0.00 62 1015.7
20260504080652 3 248 0.0 0.0 0.00 0.00 0.00 62 1015.6
20260504060159 4 264 0.0 0.0 0.00 0.00 0.00 59 1015.7
20260504050105 5 243 0.0 0.0 0.00 0.00 0.00 56 1015.6
20260504045800 5 243 0.0 0.0 0.00 0.00 0.00 56 1015.7
20260504045446 5 243 0.0 0.0 0.00 0.00 0.00 56 1015.7
20260504045137 5 243 0.0 0.0 0.00 0.00 0.00 56 1015.7
20260504044840 5 243 0.0 0.0 0.00 0.00 0.00 55 1015.8
20260504044527 5 243 0.0 0.0 0.00 0.00 0.00 55 1015.7
20260504044221 5 243 0.0 0.0 0.00 0.00 0.00 55 1015.9
20260504043907 5 243 0.0 0.0 0.00 0.00 0.00 55 1015.8
20260504043605 5 243 0.0 0.0 0.00 0.00 0.00 55 1015.9
20260504043258 5 240 0.0 0.0 0.00 0.00 0.00 55 1015.8
20260504042959 5 240 0.0 0.0 0.00 0.00 0.00 55 1015.8
20260504042232 5 240 0.0 0.0 0.00 0.00 0.00 54 1015.8
20260504041929 5 240 0.0 0.0 0.00 0.00 0.00 54 1015.7
20260504041616 5 205 0.0 0.0 0.00 0.00 0.00 54 1015.8
20260504041303 6 163 0.0 0.0 0.00 0.00 0.00 54 1015.7
20260504040553 6 163 0.0 0.0 0.00 0.00 0.00 54 1015.7
20260504040241 6 163 0.0 0.0 0.00 0.00 0.00 54 1015.8
20260504035943 6 163 0.0 0.0 0.00 0.00 0.00 54 1015.8
20260504035639 6 164 0.0 0.0 0.00 0.00 0.00 53 1015.8
20260504035339 6 164 0.0 0.0 0.00 0.00 0.00 53 1015.9
20260504035039 6 160 0.0 0.0 0.00 0.00 0.00 53 1015.8
20260504034735 6 160 0.0 0.0 0.00 0.00 0.00 53 1015.7
20260504034423 6 160 0.0 0.0 0.00 0.00 0.00 52 1015.8
20260504034126 6 150 0.0 0.0 0.00 0.00 0.00 51 1015.7
20260504033813 6 147 0.0 0.0 0.00 0.00 0.00 52 1015.6
20260504033512 6 147 0.0 0.0 0.00 0.00 0.00 52 1015.7
20260504033207 6 147 0.0 0.0 0.00 0.00 0.00 51 1015.5
20260504032449 6 147 0.0 0.0 0.00 0.00 0.00 51 1015.5
20260504032142 6 153 0.0 0.0 0.00 0.00 0.00 51 1015.4
20260504031832 6 261 0.0 0.0 0.00 0.00 0.00 50 1015.4
20260504031114 7 261 0.0 0.0 0.00 0.00 0.00 51 1015.3
20260504030808 7 261 0.0 0.0 0.00 0.00 0.00 51 1015.3
20260504030503 7 261 0.0 0.0 0.00 0.00 0.00 51 1015.3
20260504030154 7 261 0.0 0.0 0.00 0.00 0.00 51 1015.1
20260504025418 7 261 0.0 0.0 0.00 0.00 0.00 50 1015.1
20260504024237 7 261 0.0 0.0 0.00 0.00 0.00 49 1015.2
20260504023938 7 261 0.0 0.0 0.00 0.00 0.00 49 1015.2
20260504023642 7 260 0.0 0.0 0.00 0.00 0.00 48 1015.2
20260504022901 7 260 0.0 0.0 0.00 0.00 0.00 47 1015.2
20260504022151 7 260 0.0 0.0 0.00 0.00 0.00 47 1015.2
20260504021848 7 260 0.0 0.0 0.00 0.00 0.00 46 1015.1
20260504021545 8 260 0.0 0.0 0.00 0.00 0.00 46 1015.1
20260504021240 8 260 0.0 0.0 0.00 0.00 0.00 45 1015.1
20260504020937 8 260 0.0 0.0 0.00 0.00 0.00 44 1015.1
20260504020628 8 260 0.0 0.0 0.00 0.00 0.00 44 1015.0
20260504020326 8 260 0.0 0.0 0.00 0.00 0.00 44 1015.2
20260504020025 8 260 0.0 0.0 0.00 0.00 0.00 43 1015.1
20260504015721 8 260 0.0 0.0 0.00 0.00 0.00 45 1015.1
20260504015414 8 260 0.0 0.0 0.00 0.00 0.00 44 1015.1
20260504015102 8 260 0.0 0.0 0.00 0.00 0.00 43 1015.2
20260504014342 9 260 0.0 0.0 0.00 0.00 0.00 42 1015.1
20260504014031 9 260 0.0 0.0 0.00 0.00 0.00 41 1015.0
20260504013730 9 260 0.0 0.0 0.00 0.00 0.00 40 1015.0
20260504013428 9 260 0.0 0.0 0.00 0.00 0.00 40 1015.1
20260504013115 9 260 0.0 0.0 0.00 0.00 0.00 41 1015.0
20260504012806 10 260 0.0 0.0 0.00 0.00 0.00 40 1015.2
20260504012500 10 260 0.0 0.0 0.00 0.00 0.00 38 1015.1
20260504012148 10 260 0.0 0.0 0.00 0.00 0.00 38 1015.0
20260504011846 10 260 0.0 0.0 0.00 0.00 0.00 38 1015.0
20260504011117 10 260 0.0 0.0 0.00 0.00 0.00 38 1015.0
20260504010352 10 260 0.0 0.0 0.00 0.00 0.00 37 1014.9
20260504010048 11 260 0.0 0.0 0.00 0.00 0.00 37 1014.9
20260504005750 11 260 0.0 0.0 0.00 0.00 0.00 36 1014.9
20260504005029 11 261 0.0 0.0 0.00 0.00 0.00 36 1014.8
20260504004729 11 262 0.0 0.0 0.00 0.00 0.00 35 1014.7
20260504004427 11 262 0.0 0.0 0.00 0.00 0.00 36 1014.7
20260504004117 11 262 0.0 0.0 0.00 0.00 0.00 34 1014.7
20260504003804 12 262 0.0 0.0 0.00 0.00 0.00 33 1014.7
20260504003505 12 262 0.0 0.0 0.00 0.00 0.00 32 1014.9
20260504002732 12 292 0.0 0.0 0.00 0.00 0.00 31 1014.8
20260504002420 12 292 0.0 0.0 0.00 0.00 0.00 31 1014.7
20260504001702 12 317 0.0 4.8 0.00 0.00 0.00 29 1014.5
20260504000938 13 326 0.0 1.6 0.00 0.00 0.00 28 1014.5
20260504000222 13 263 0.0 4.8 0.00 0.00 0.00 28 1014.5
20260503235919 13 292 0.0 3.2 0.00 0.00 0.00 27 1014.5
20260503235158 13 271 0.0 12.9 0.00 0.00 0.00 27 1014.4
20260503234850 13 305 0.0 12.9 0.00 0.00 0.00 26 1014.4
20260503234125 14 273 3.2 12.9 0.00 0.00 0.00 25 1014.3
20260503233823 14 223 3.2 12.9 0.00 0.00 0.00 26 1014.4
20260503233056 14 275 3.2 11.3 0.00 0.00 0.00 26 1014.1
20260503232745 14 281 1.6 11.3 0.00 0.00 0.00 25 1014.1
20260503232025 15 269 3.2 11.3 0.00 0.00 0.00 24 1014.2
20260503231726 15 319 3.2 11.3 0.00 0.00 0.00 25 1014.1
20260503230957 15 321 1.6 16.1 0.00 0.00 0.00 25 1014.1
20260503230655 15 324 1.6 16.1 0.00 0.00 0.00 24 1014.1
20260503230342 15 281 1.6 16.1 0.00 0.00 0.00 25 1014.1
20260503230041 15 270 3.2 16.1 0.00 0.00 0.00 26 1014.1
20260503225736 15 348 3.2 16.1 0.00 0.00 0.00 23 1014.1
20260503225428 15 336 4.8 16.1 0.00 0.00 0.00 23 1014.1
20260503225116 15 291 4.8 16.1 0.00 0.00 0.00 24 1014.1
20260503224814 15 279 4.8 16.1 0.00 0.00 0.00 22 1014.1
20260503224047 15 286 4.8 17.7 0.00 0.00 0.00 22 1014.1
20260503223311 15 277 4.8 24.1 0.00 0.00 0.00 22 1014.1
20260503223001 15 20 6.4 24.1 0.00 0.00 0.00 24 1014.1
20260503222242 15 284 8.0 24.1 0.00 0.00 0.00 21 1014.2
20260503221930 15 290 8.0 24.1 0.00 0.00 0.00 21 1014.1
20260503221618 15 292 6.4 24.1 0.00 0.00 0.00 21 1014.1